Location: Ayer Observatory
(42.2600°N, 71.0700°W)
Time: 13:29:36
(UTC-04:00)

XW-2A - Visible Passes

Search period start: 17 May 2021 00:00
Search period end: 27 May 2021 00:00
Orbit: 421 x 440 km, 97.2° (Epoch: 17 May)

Date Brightness Start Highest point End Pass type
(mag) Time Alt. Az. Time Alt. Az. Time Alt. Az.
17 May ? 21:15:08 18° SSE 21:17:29 70° ENE 21:20:45 10° N visible
18 May ? 20:34:30 10° ESE 20:36:55 19° ENE 20:39:21 10° NNE visible
18 May ? 22:07:13 13° SW 22:09:12 21° W 22:11:45 10° NW visible
19 May ? 21:26:01 18° S 21:28:21 80° WSW 21:31:38 10° NNW visible
20 May ? 20:44:57 10° SE 20:47:44 26° ENE 20:50:31 10° NNE visible
20 May ? 22:18:10 10° SW 22:20:09 15° W 22:22:08 10° NW visible
21 May ? 21:36:53 17° S 21:39:13 54° W 21:42:26 10° NNW visible
22 May ? 20:55:41 11° SE 20:58:31 36° ENE 21:01:32 10° N visible
22 May ? 22:30:08 10° WSW 22:31:04 11° W 22:31:59 10° WNW visible
23 May ? 21:47:43 15° SSW 21:50:04 37° W 21:53:07 10° NNW visible
24 May ? 21:06:30 13° SSE 21:09:17 51° ENE 21:12:27 10° N visible
25 May ? 21:58:32 13° SSW 22:00:54 26° W 22:03:42 10° NW visible
26 May ? 21:17:18 14° SSE 21:20:02 76° ENE 21:23:17 10° N visible
